Wind_Speed
26 25 23 22 22 22 21 21 20 19 19 19 19 19 19 19 18 17 16 17 17 17 17 17 17 17 17 17 17 18 18 18 18 19 21 22 22 23 23 24 25 25 26
26 27 24 23 23 22 22 22 22 21 21 21 21 21 21 21 21 20 19 20 19 19 19 19 19 19 19 19 19 20 20 21 22 22 23 24 25 25 25 26 26 27 27
26 25 25 24 24 24 24 23 23 23 23 22 22 22 22 23 23 23 22 22 22 22 22 22 22 22 23 22 22 23 24 24 25 26 27 28 28 29 29 29 30 30 30
25 25 25 24 25 25 25 25 25 24 24 24 24 24 25 25 25 25 25 25 25 25 25 26 26 26 25 25 25 26 26 27 28 29 29 30 31 32 33 33 34 33 34
25 25 26 25 26 26 26 26 26 26 26 26 26 26 27 27 27 27 27 27 28 27 27 28 28 28 28 28 29 30 30 31 31 32 32 33 33 34 35 36 38 38 38
24 26 25 26 26 26 27 27 28 28 28 28 28 27 28 28 28 29 29 30 30 29 30 31 31 31 32 32 33 33 34 34 35 35 36 36 36 37 38 38 39 40 41
25 25 25 27 27 27 29 30 30 30 30 29 29 29 30 29 30 31 31 32 33 32 33 33 34 34 34 35 36 36 37 37 38 39 40 40 41 41 41 42 43 44 45
23 24 26 27 28 28 29 30 30 31 31 31 32 31 31 30 31 32 33 34 34 35 35 36 36 36 37 38 38 39 40 40 41 42 42 42 43 43 44 45 46 47 48
23 26 26 27 29 29 30 31 32 31 32 32 31 32 32 32 32 32 33 34 35 36 37 37 38 40 40 39 40 41 41 42 43 43 44 45 45 45 46 47 48 49 50
23 24 25 26 27 28 29 30 31 32 32 33 33 34 34 35 35 35 36 37 37 38 39 39 40 41 42 42 42 43 44 44 45 45 46 46 47 47 48 49 50 51 52
25 25 26 26 27 29 29 30 32 33 33 34 35 36 36 37 38 37 38 38 39 40 41 41 42 42 43 43 44 44 45 46 47 48 49 49 49 50 51 52 53 53 54
26 27 28 27 27 29 31 32 33 35 35 35 35 37 37 38 38 39 40 40 41 41 42 42 41 42 43 43 44 45 46 47 48 49 50 51 51 52 53 54 54 55 55
27 28 29 29 29 30 30 32 33 34 34 34 35 36 37 37 38 39 41 41 40 40 41 40 41 41 42 43 44 46 47 48 49 50 51 52 53 53 53 54 54 54 55
27 28 28 28 29 30 30 31 32 32 33 34 35 36 37 37 38 38 39 40 40 40 40 40 41 42 44 45 47 47 49 50 51 52 52 53 53 53 53 53 53 53 54
26 26 26 27 27 27 28 29 29 30 32 33 34 35 36 36 36 36 37 39 41 41 41 42 43 44 46 47 48 49 49 51 52 52 52 51 51 51 51 51 51 51 51
27 26 26 26 25 25 26 26 27 29 30 30 31 32 33 33 34 35 37 39 40 41 42 43 44 45 47 48 49 49 50 50 50 50 50 49 48 48 48 47 47 47 48
27 26 26 27 26 25 26 27 27 28 29 30 30 31 32 33 34 36 37 38 40 42 43 44 45 47 48 48 49 48 48 47 47 46 45 45 45 44 44 43 42 42 42
27 27 27 27 26 26 26 27 27 28 29 30 31 32 33 34 36 37 38 40 41 43 44 45 45 45 46 46 46 46 45 44 42 42 41 41 40 39 39 38 37 37 36
27 27 27 26 26 27 27 27 28 29 31 31 32 33 34 36 37 38 39 40 42 42 43 43 43 43 43 43 42 41 40 39 39 37 36 36 36 35 34 34 33 33 32
28 28 27 27 28 28 28 29 29 30 31 32 34 34 35 37 37 38 39 40 40 41 41 41 40 39 38 37 36 35 35 34 34 33 32 32 31 31 30 30 29 29 29
28 28 28 28 29 29 29 29 29 30 31 32 33 34 35 36 36 37 37 37 37 37 37 36 35 34 33 32 32 32 31 30 30 29 29 27 27 26 26 26 27 27 27
27 27 27 27 27 28 28 29 29 30 31 32 32 33 34 34 35 35 35 35 34 32 32 31 30 29 29 29 29 28 27 27 26 25 25 24 23 23 23 24 25 25 25
25 25 25 25 25 26 26 27 28 29 30 31 31 31 32 32 32 32 31 30 29 28 27 27 26 26 26 26 26 26 25 24 23 22 22 22 21 21 21 22 22 23 24
24 24 24 24 25 26 27 27 28 29 29 29 30 30 29 29 29 27 27 27 26 26 25 25 25 25 24 24 23 23 22 21 20 20 20 20 20 20 20 21 22 23 24
22 23 23 24 24 25 26 27 27 27 27 27 27 27 27 26 26 25 25 25 25 24 24 24 23 23 22 22 21 20 19 18 18 18 18 18 18 18 18 19 20 22 22
20 21 21 22 22 23 24 24 24 25 25 25 25 24 24 24 24 23 23 23 23 23 22 22 22 21 20 20 19 18 18 18 18 17 17 17 17 17 17 18 19 19 19
Wind_Direction
248 250 251 251 250 250 252 254 254 254 254 254 254 255 257 260 262 263 266 270 274 277 279 282 282 284 286 285 284 282 285 284 283 284 282 282 282 281 280 278 277 277 277
247 248 249 248 248 248 252 254 255 255 254 255 256 257 259 262 266 267 268 271 276 278 278 280 281 282 284 284 283 283 284 283 283 283 284 284 282 282 281 279 278 278 278
248 247 250 249 249 249 249 252 254 255 256 257 258 257 259 263 266 269 270 271 274 277 278 279 281 281 283 283 283 283 283 284 284 284 285 284 283 282 281 280 281 279 277
247 249 248 248 250 249 251 252 253 255 257 258 258 259 261 263 265 268 270 272 274 275 277 278 280 281 281 282 282 283 283 283 284 284 285 285 284 282 281 280 280 280 279
250 250 248 248 249 250 252 252 254 255 256 257 258 260 262 263 266 268 271 273 274 275 275 277 278 280 281 281 282 284 285 285 286 286 286 286 285 284 283 282 281 280 279
252 254 254 253 251 250 253 254 255 255 256 256 259 260 262 263 265 268 270 271 274 275 275 275 277 279 280 282 283 283 285 286 287 288 288 288 287 286 284 284 283 281 280
257 259 259 257 254 253 253 253 254 255 256 257 259 261 262 263 266 268 271 273 275 276 277 278 278 279 281 283 283 284 284 285 286 287 288 287 287 287 285 284 283 282 282
263 264 263 262 258 256 255 254 254 255 257 259 260 261 262 265 269 271 272 274 275 276 278 280 281 281 283 284 284 284 285 285 286 288 288 288 288 287 286 285 284 284 283
267 267 267 262 261 260 257 257 256 255 258 260 261 260 262 265 268 270 271 273 276 278 279 281 282 283 284 285 285 286 287 287 288 289 289 289 288 288 287 286 285 284 284
273 271 268 266 263 262 260 260 258 258 258 259 260 261 263 265 267 269 270 272 275 278 279 280 282 283 284 285 285 286 287 288 289 289 289 289 289 289 289 288 287 287 285
271 272 272 271 268 263 260 260 260 259 260 260 261 262 263 266 267 268 269 271 274 277 279 281 283 284 284 285 286 287 288 289 289 290 291 291 291 290 290 290 289 288 287
270 271 272 272 269 264 262 261 262 261 261 260 261 261 263 266 268 269 270 271 273 276 278 280 283 285 286 287 288 289 290 290 291 292 292 292 292 291 291 290 290 289 288
268 267 268 270 268 267 263 260 261 259 259 260 261 262 265 267 268 270 271 273 274 276 279 282 284 286 287 289 290 291 292 293 293 293 293 293 292 292 292 291 291 290 289
269 269 269 268 267 268 265 262 261 260 259 260 261 263 264 266 269 271 273 274 276 279 282 284 285 287 290 291 292 293 294 294 294 294 294 294 294 294 294 293 292 291 290
270 270 271 270 270 268 264 264 263 262 262 262 264 264 265 269 271 273 275 278 281 283 284 286 288 290 291 293 293 294 295 295 296 295 295 296 295 295 295 294 294 293 292
271 269 271 270 270 268 265 265 265 265 264 265 268 269 272 275 277 279 281 283 285 286 288 289 291 292 293 294 295 295 296 297 297 297 297 297 297 297 296 296 296 296 295
269 267 268 269 270 268 266 268 269 270 270 272 273 274 276 278 281 284 285 287 288 290 291 292 293 294 295 296 296 296 297 297 297 297 298 298 299 299 299 299 300 299 299
267 267 267 267 267 270 270 271 272 273 275 276 277 278 280 283 284 286 287 289 291 292 292 293 295 296 296 296 297 297 297 298 298 299 300 300 301 302 302 302 303 303 303
266 267 267 268 270 273 273 273 274 275 276 278 280 282 284 286 287 289 290 291 292 293 294 295 296 296 296 296 297 298 299 299 300 301 302 303 303 304 304 305 305 306 306
269 269 267 269 271 274 274 275 276 279 281 283 284 286 288 289 289 290 291 292 293 294 295 296 296 297 297 298 298 299 300 301 303 304 304 305 306 307 308 309 310 312 312
269 269 268 268 270 273 275 277 280 283 284 285 286 288 289 289 290 292 293 294 295 296 296 297 298 298 299 299 300 301 303 305 306 307 307 307 309 310 311 312 314 315 316
267 267 267 270 273 276 278 281 282 284 285 286 287 288 289 291 292 293 294 295 296 297 299 299 300 300 302 302 304 304 305 306 307 307 308 309 310 312 312 313 316 317 319
269 270 273 276 279 280 281 283 285 286 287 288 288 289 291 292 293 295 296 297 298 299 300 302 303 304 305 305 305 305 305 305 306 307 310 312 314 315 315 316 320 322 324
271 273 276 278 281 284 286 287 288 289 289 289 290 292 293 294 295 296 296 297 299 300 302 303 304 305 305 306 305 305 305 305 305 308 311 313 315 316 318 320 322 325 327
274 276 278 280 283 285 286 288 289 290 290 291 292 293 294 294 295 296 297 297 298 299 300 301 302 303 304 304 305 305 305 305 306 308 310 311 313 315 318 321 324 326 329
277 279 280 283 284 286 287 288 289 291 291 292 292 293 294 295 296 297 297 298 298 298 299 300 301 301 302 303 303 304 304 304 305 306 308 309 311 314 318 322 326 329 332
Height
5860 5861 5862 5864 5865 5867 5868 5869 5871 5872 5873 5874 5875 5876 5876 5877 5878 5879 5879 5879 5879 5879 5879 5879 5878 5878 5878 5877 5877 5877 5876 5876 5875 5875 5875 5874 5874 5873 5873 5872 5871 5871 5871
5854 5856 5858 5859 5861 5863 5864 5865 5867 5868 5869 5870 5871 5872 5873 5874 5874 5875 5876 5875 5875 5875 5875 5875 5875 5874 5874 5873 5873 5872 5872 5872 5871 5870 5870 5869 5868 5868 5867 5866 5866 5865 5865
5849 5851 5853 5855 5856 5857 5859 5860 5862 5864 5865 5866 5867 5868 5869 5870 5870 5870 5871 5871 5871 5871 5871 5871 5870 5870 5870 5869 5869 5868 5868 5867 5866 5865 5864 5864 5863 5862 5861 5860 5860 5859 5858
5843 5845 5848 5849 5851 5853 5855 5855 5857 5859 5860 5861 5862 5863 5864 5865 5866 5866 5866 5866 5866 5866 5866 5866 5865 5865 5865 5864 5863 5863 5862 5861 5860 5859 5859 5858 5856 5855 5854 5854 5853 5852 5851
5838 5839 5842 5844 5845 5847 5849 5850 5852 5854 5855 5856 5857 5858 5859 5860 5860 5860 5860 5860 5860 5860 5860 5860 5860 5859 5859 5858 5857 5856 5856 5855 5854 5853 5852 5851 5849 5848 5847 5846 5845 5844 5843
5831 5834 5836 5838 5839 5842 5843 5845 5847 5848 5849 5850 5852 5852 5853 5854 5855 5854 5854 5854 5854 5854 5854 5854 5854 5853 5853 5852 5851 5850 5849 5848 5847 5846 5844 5843 5842 5840 5839 5837 5836 5835 5833
5826 5828 5831 5832 5834 5836 5837 5839 5841 5842 5843 5844 5846 5846 5847 5848 5848 5848 5848 5848 5848 5847 5847 5847 5846 5846 5846 5845 5843 5842 5841 5840 5839 5837 5836 5834 5833 5831 5829 5828 5826 5825 5823
5820 5822 5824 5826 5827 5829 5831 5832 5834 5836 5837 5838 5840 5840 5841 5843 5842 5842 5842 5842 5841 5840 5840 5839 5839 5838 5838 5837 5836 5834 5833 5831 5830 5828 5827 5825 5823 5821 5819 5817 5815 5814 5812
5815 5817 5818 5820 5821 5823 5825 5826 5827 5829 5831 5832 5833 5834 5835 5835 5836 5835 5835 5835 5834 5833 5833 5832 5831 5830 5830 5829 5827 5825 5824 5822 5820 5818 5816 5814 5812 5810 5808 5806 5804 5802 5800
5810 5812 5813 5814 5816 5817 5818 5819 5821 5822 5824 5825 5826 5827 5828 5829 5829 5829 5828 5827 5827 5826 5825 5824 5823 5822 5821 5820 5818 5816 5814 5812 5810 5808 5806 5803 5801 5799 5796 5794 5792 5789 5787
5805 5806 5807 5809 5809 5811 5812 5813 5814 5815 5817 5818 5819 5819 5820 5820 5820 5821 5820 5820 5819 5818 5816 5815 5814 5813 5812 5811 5808 5806 5804 5802 5800 5798 5795 5792 5790 5787 5784 5781 5778 5776 5773
5800 5801 5802 5802 5803 5804 5805 5806 5807 5808 5809 5810 5811 5812 5812 5812 5812 5812 5812 5811 5811 5810 5808 5807 5806 5804 5802 5801 5798 5796 5794 5792 5789 5786 5784 5781 5778 5775 5772 5768 5765 5762 5758
5794 5795 5795 5796 5797 5798 5798 5799 5800 5801 5802 5802 5803 5804 5804 5804 5804 5804 5803 5802 5802 5801 5800 5799 5797 5795 5793 5791 5789 5786 5784 5781 5778 5775 5772 5769 5765 5762 5758 5754 5751 5747 5744
5788 5789 5789 5790 5790 5791 5791 5792 5793 5794 5795 5795 5796 5796 5796 5796 5796 5795 5795 5794 5793 5793 5792 5790 5788 5786 5783 5781 5779 5776 5773 5770 5766 5763 5760 5756 5752 5748 5745 5741 5737 5733 5729
5783 5783 5784 5784 5784 5784 5785 5786 5786 5787 5788 5788 5788 5788 5788 5788 5788 5787 5786 5785 5785 5784 5784 5782 5780 5776 5773 5771 5768 5765 5762 5758 5755 5751 5747 5743 5739 5735 5731 5727 5723 5719 5714
5777 5778 5778 5778 5778 5779 5779 5779 5780 5780 5781 5781 5781 5781 5781 5781 5780 5780 5779 5777 5775 5774 5773 5772 5769 5766 5763 5760 5757 5753 5750 5746 5742 5739 5735 5731 5727 5723 5719 5714 5710 5706 5701
5771 5772 5772 5773 5773 5773 5773 5774 5774 5775 5775 5775 5775 5774 5774 5774 5773 5772 5770 5769 5767 5765 5763 5762 5759 5755 5752 5749 5745 5742 5739 5735 5731 5727 5723 5719 5715 5711 5707 5703 5698 5694 5690
5766 5766 5767 5767 5767 5767 5768 5768 5768 5768 5768 5768 5768 5767 5767 5766 5765 5764 5762 5760 5758 5755 5753 5751 5748 5745 5741 5738 5734 5731 5728 5724 5720 5716 5712 5708 5704 5701 5697 5693 5689 5685 5680
5760 5760 5760 5761 5761 5761 5762 5762 5762 5762 5761 5761 5760 5760 5759 5758 5756 5755 5753 5751 5749 5746 5743 5740 5737 5734 5731 5728 5724 5721 5717 5713 5710 5707 5703 5699 5695 5691 5688 5684 5680 5676 5672
5753 5754 5754 5755 5755 5755 5755 5755 5755 5755 5754 5753 5753 5752 5751 5749 5748 5746 5744 5742 5739 5736 5733 5730 5727 5724 5722 5718 5715 5712 5708 5705 5701 5698 5695 5691 5688 5684 5680 5677 5674 5670 5666
5746 5747 5747 5748 5748 5748 5748 5748 5748 5747 5747 5746 5745 5744 5742 5741 5739 5737 5735 5732 5730 5727 5724 5721 5718 5716 5713 5710 5707 5703 5700 5697 5693 5690 5687 5684 5681 5678 5675 5671 5668 5664 5660
5740 5740 5741 5741 5741 5741 5741 5741 5740 5740 5739 5738 5737 5736 5734 5732 5730 5728 5726 5723 5721 5719 5716 5713 5711 5708 5705 5702 5699 5696 5693 5690 5687 5685 5682 5679 5676 5673 5670 5667 5663 5659 5655
5734 5734 5734 5735 5735 5734 5734 5733 5733 5732 5731 5730 5729 5728 5726 5724 5722 5719 5717 5715 5713 5711 5708 5706 5704 5701 5699 5696 5693 5690 5687 5685 5682 5679 5677 5674 5671 5669 5665 5662 5659 5655 5650
5727 5728 5728 5728 5728 5728 5727 5726 5726 5725 5723 5722 5721 5719 5718 5716 5714 5712 5710 5708 5706 5704 5702 5700 5698 5695 5693 5690 5687 5685 5682 5680 5677 5675 5673 5670 5667 5665 5662 5658 5655 5651 5647
5721 5722 5722 5722 5722 5721 5720 5719 5718 5717 5716 5715 5713 5712 5710 5709 5707 5705 5703 5701 5700 5698 5696 5694 5692 5689 5687 5684 5682 5680 5678 5675 5673 5671 5669 5667 5664 5661 5658 5655 5652 5648 5644
5716 5716 5716 5716 5716 5715 5714 5713 5712 5710 5709 5708 5707 5705 5704 5702 5701 5699 5697 5695 5694 5692 5690 5688 5686 5684 5682 5679 5677 5675 5673 5671 5669 5667 5665 5663 5661 5658 5655 5652 5649 5645 5641